TimeCST,TemperatureF,Dew PointF,Humidity,Sea Level PressureIn,VisibilityMPH,Wind Direction,Wind SpeedMPH,Gust SpeedMPH,PrecipitationIn,Events,Conditions,WindDirDegrees,DateUTC
12:58 AM,53.8,39.4,58,30.27,10.0,South,9.2,-,N/A,,Clear,180,2013-02-18 06:58:00
1:58 AM,54.1,42.8,66,30.26,10.0,South,11.5,-,N/A,,Clear,180,2013-02-18 07:58:00
2:58 AM,54.5,41.9,62,30.24,10.0,South,11.5,-,N/A,,Clear,180,2013-02-18 08:58:00
3:58 AM,54.9,43.3,65,30.24,10.0,South,10.4,-,N/A,,Clear,190,2013-02-18 09:58:00
4:58 AM,55.2,45.3,69,30.25,10.0,South,10.4,-,N/A,,Clear,180,2013-02-18 10:58:00
5:58 AM,55.8,45.9,69,30.24,10.0,South,10.4,-,N/A,,Clear,180,2013-02-18 11:58:00
6:58 AM,56.7,45.9,67,30.25,10.0,South,12.7,-,N/A,,Clear,170,2013-02-18 12:58:00
7:58 AM,59.5,46.4,62,30.25,10.0,SSE,10.4,-,N/A,,Clear,150,2013-02-18 13:58:00
8:58 AM,61.5,47.7,60,30.26,10.0,SSE,12.7,-,N/A,,Scattered Clouds,150,2013-02-18 14:58:00
9:58 AM,63.1,47.8,57,30.25,10.0,SSE,15.0,23.0,N/A,,Clear,150,2013-02-18 15:58:00
10:58 AM,64.2,48.0,56,30.26,10.0,SSE,12.7,23.0,N/A,,Partly Cloudy,150,2013-02-18 16:58:00
11:58 AM,62.6,48.2,59,30.24,10.0,SSE,15.0,23.0,N/A,,Overcast,150,2013-02-18 17:58:00
12:58 PM,61.2,47.8,62,30.20,10.0,SE,13.8,24.2,N/A,,Overcast,140,2013-02-18 18:58:00
1:58 PM,61.3,47.7,61,30.16,10.0,SE,15.0,20.7,N/A,,Overcast,140,2013-02-18 19:58:00
2:58 PM,61.9,48.2,61,30.15,10.0,SE,17.3,25.3,N/A,,Overcast,140,2013-02-18 20:58:00
3:58 PM,61.0,49.3,65,30.13,10.0,SE,13.8,20.7,N/A,,Overcast,140,2013-02-18 21:58:00
3:59 PM,60.8,50.0,68,30.12,10.0,SE,12.7,20.7,N/A,Rain,Light Rain,140,2013-02-18 21:59:00
4:16 PM,59.0,51.8,77,30.12,10.0,SE,15.0,19.6,N/A,,Overcast,140,2013-02-18 22:16:00
4:58 PM,59.2,52.3,78,30.11,10.0,SE,16.1,21.9,0.00,,Mostly Cloudy,130,2013-02-18 22:58:00
5:58 PM,60.4,52.3,75,30.10,10.0,SE,13.8,21.9,N/A,,Overcast,130,2013-02-18 23:58:00
6:58 PM,60.6,53.4,77,30.09,10.0,SE,13.8,21.9,N/A,,Overcast,140,2013-02-19 00:58:00
7:58 PM,61.2,54.7,79,30.09,10.0,SE,12.7,-,N/A,,Overcast,140,2013-02-19 01:58:00
8:18 PM,60.8,55.4,82,30.08,10.0,SSE,13.8,17.3,N/A,,Overcast,150,2013-02-19 02:18:00
8:43 PM,60.8,55.4,82,30.07,10.0,SSE,16.1,20.7,N/A,,Overcast,150,2013-02-19 02:43:00
8:48 PM,60.8,55.4,82,30.07,10.0,SSE,17.3,-,N/A,,Overcast,150,2013-02-19 02:48:00
8:58 PM,61.5,55.2,80,30.08,10.0,SSE,13.8,19.6,N/A,,Overcast,150,2013-02-19 02:58:00
9:58 PM,61.5,56.1,82,30.06,10.0,SSE,15.0,20.7,N/A,,Overcast,150,2013-02-19 03:58:00
10:43 PM,62.6,57.2,82,30.04,10.0,SSE,11.5,21.9,N/A,,Overcast,160,2013-02-19 04:43:00
10:58 PM,62.2,56.8,82,30.04,10.0,South,12.7,21.9,N/A,,Overcast,170,2013-02-19 04:58:00
11:48 PM,62.6,57.2,82,30.01,10.0,South,15.0,21.9,N/A,,Overcast,170,2013-02-19 05:48:00
11:58 PM,62.4,58.1,86,30.03,10.0,South,15.0,-,N/A,,Overcast,190,2013-02-19 05:58:00